When you browse on this site, cookies collect data to enhance your experience and personalize the content and advertising you see.
Visit our Privacy Policy to learn more. By continuing to use the site, you agree to this use of cookies and data.
  • In Portugal
  • List of Countries
  • For 7 days
  • Water Temperature
  • Satellite Maps
  • Weather Map
  • Weather Widgets
  • user-avatar
    Login

    Hourly Weather Oruro

    Today, 25 March, Monday

    Time Temperature Precipitation Wind Pressure Humidity
    00:00 +8°C° 0.2 mm 5 mps 477 mmHg 62%
    01:00 +8°C° 0.2 mm 5 mps 477 mmHg 64%
    02:00 +7°C° 0.2 mm 4 mps 477 mmHg 65%
    03:00 +7°C° 0.2 mm 4 mps 477 mmHg 66%
    04:00 +7°C° 0.2 mm 4 mps 476 mmHg 67%
    05:00 +7°C° 0.2 mm 4 mps 476 mmHg 68%
    06:00 +7°C° 0.2 mm 4 mps 476 mmHg 67%
    07:00 +8°C° 0.2 mm 3 mps 477 mmHg 66%
    08:00 +8°C° 0.2 mm 3 mps 477 mmHg 65%
    09:00 +10°C° 0 mm 3 mps 478 mmHg 57%
    10:00 +11°C° 0 mm 3 mps 479 mmHg 50%
    11:00 +13°C° 0 mm 4 mps 480 mmHg 42%
    12:00 +14°C° 0 mm 3 mps 479 mmHg 41%
    13:00 +14°C° 0 mm 3 mps 479 mmHg 39%
    14:00 +16°C° 0 mm 3 mps 479 mmHg 37%
    15:00 +14°C° 0.2 mm 3 mps 478 mmHg 40%
    16:00 +14°C° 0.2 mm 3 mps 477 mmHg 43%
    17:00 +13°C° 0.2 mm 3 mps 477 mmHg 45%
    18:00 +13°C° 0.9 mm 3 mps 477 mmHg 51%
    19:00 +12°C° 0.9 mm 4 mps 477 mmHg 56%
    20:00 +10°C° 0.9 mm 5 mps 477 mmHg 62%
    21:00 +9°C° 0 mm 5 mps 477 mmHg 65%
    22:00 +8°C° 0 mm 4 mps 477 mmHg 68%
    23:00 +8°C° 0 mm 4 mps 477 mmHg 71%

    Tomorrow, 26 March, Tuesday

    Time Temperature Precipitation Wind Pressure Humidity
    00:00 +7°C° 0 mm 4 mps 476 mmHg 72%
    01:00 +7°C° 0 mm 4 mps 476 mmHg 74%
    02:00 +6°C° 0 mm 4 mps 475 mmHg 75%
    03:00 +7°C° 0 mm 3 mps 475 mmHg 76%
    04:00 +5°C° 0 mm 3 mps 475 mmHg 77%
    05:00 +5°C° 0 mm 3 mps 474 mmHg 79%
    06:00 +5°C° 0 mm 3 mps 475 mmHg 76%
    07:00 +7°C° 0 mm 3 mps 476 mmHg 73%
    08:00 +8°C° 0 mm 3 mps 476 mmHg 70%
    09:00 +9°C° 0 mm 3 mps 477 mmHg 62%
    10:00 +11°C° 0 mm 3 mps 479 mmHg 55%
    11:00 +12°C° 0 mm 3 mps 480 mmHg 48%
    12:00 +13°C° 0.1 mm 3 mps 479 mmHg 46%
    13:00 +14°C° 0.1 mm 4 mps 479 mmHg 44%
    14:00 +14°C° 0.1 mm 5 mps 479 mmHg 42%
    15:00 +14°C° 0.2 mm 6 mps 478 mmHg 45%
    16:00 +14°C° 0.2 mm 6 mps 477 mmHg 47%
    17:00 +12°C° 0.2 mm 7 mps 477 mmHg 49%
    18:00 +11°C° 0 mm 8 mps 477 mmHg 55%
    19:00 +8°C° 0 mm 9 mps 476 mmHg 61%
    20:00 +7°C° 0 mm 9 mps 476 mmHg 67%
    21:00 +7°C° 0.1 mm 9 mps 476 mmHg 67%
    22:00 +7°C° 0.1 mm 8 mps 477 mmHg 68%
    23:00 +6°C° 0.1 mm 7 mps 478 mmHg 69%

    Day after tomorrow, 27 March, Wednesday

    Time Temperature Precipitation Wind Pressure Humidity
    00:00 +7°C° 0.1 mm 6 mps 477 mmHg 69%
    01:00 +7°C° 0.1 mm 5 mps 477 mmHg 69%
    02:00 +7°C° 0.1 mm 5 mps 477 mmHg 70%
    03:00 +7°C° 0 mm 4 mps 477 mmHg 70%
    04:00 +7°C° 0 mm 4 mps 477 mmHg 71%
    05:00 +8°C° 0 mm 3 mps 476 mmHg 72%
    06:00 +8°C° 0 mm 3 mps 477 mmHg 71%
    07:00 +7°C° 0 mm 4 mps 478 mmHg 69%
    08:00 +7°C° 0 mm 4 mps 478 mmHg 68%
    09:00 +10°C° 0 mm 4 mps 479 mmHg 63%
    10:00 +10°C° 0 mm 5 mps 480 mmHg 58%
    11:00 +12°C° 0 mm 5 mps 481 mmHg 52%
    12:00 +13°C° 0.1 mm 6 mps 480 mmHg 51%
    13:00 +13°C° 0.1 mm 6 mps 480 mmHg 49%
    14:00 +14°C° 0.1 mm 7 mps 480 mmHg 48%
    15:00 +12°C° 0 mm 7 mps 479 mmHg 49%
    16:00 +12°C° 0 mm 7 mps 479 mmHg 50%
    17:00 +12°C° 0 mm 7 mps 478 mmHg 52%
    18:00 +11°C° 0 mm 7 mps 478 mmHg 56%
    19:00 +9°C° 0 mm 7 mps 478 mmHg 60%
    20:00 +8°C° 0 mm 7 mps 478 mmHg 63%
    21:00 +8°C° 0 mm 6 mps 478 mmHg 65%
    22:00 +7°C° 0 mm 6 mps 478 mmHg 68%
    23:00 +7°C° 0 mm 6 mps 478 mmHg 70%

    28 March, Thursday

    Time Temperature Precipitation Wind Pressure Humidity
    00:00 +7°C° 0 mm 6 mps 478 mmHg 70%
    01:00 +7°C° 0 mm 5 mps 478 mmHg 70%
    02:00 +6°C° 0 mm 5 mps 477 mmHg 71%
    03:00 +6°C° 0 mm 4 mps 477 mmHg 71%
    04:00 +7°C° 0 mm 3 mps 477 mmHg 71%
    05:00 +7°C° 0 mm 3 mps 477 mmHg 71%
    06:00 +7°C° 0 mm 3 mps 478 mmHg 69%
    07:00 +8°C° 0 mm 2 mps 478 mmHg 67%
    08:00 +8°C° 0 mm 2 mps 479 mmHg 65%
    09:00 +9°C° 0 mm 3 mps 480 mmHg 60%
    10:00 +11°C° 0 mm 3 mps 480 mmHg 54%
    11:00 +12°C° 0 mm 3 mps 481 mmHg 48%
    12:00 +13°C° 0 mm 4 mps 481 mmHg 46%
    13:00 +14°C° 0 mm 5 mps 481 mmHg 44%
    14:00 +14°C° 0 mm 5 mps 481 mmHg 42%
    15:00 +14°C° 0 mm 6 mps 480 mmHg 42%
    16:00 +14°C° 0 mm 6 mps 480 mmHg 43%
    17:00 +14°C° 0 mm 6 mps 479 mmHg 43%
    18:00 +13°C° 0 mm 6 mps 479 mmHg 49%
    19:00 +10°C° 0 mm 6 mps 479 mmHg 55%
    20:00 +9°C° 0 mm 6 mps 478 mmHg 60%
    21:00 +9°C° 0 mm 6 mps 478 mmHg 63%
    22:00 +8°C° 0 mm 5 mps 478 mmHg 66%
    23:00 +8°C° 0 mm 5 mps 478 mmHg 68%

    29 March, Friday

    Time Temperature Precipitation Wind Pressure Humidity
    00:00 +7°C° 0 mm 5 mps 478 mmHg 69%
    01:00 +7°C° 0 mm 5 mps 478 mmHg 70%
    02:00 +7°C° 0 mm 4 mps 477 mmHg 70%
    03:00 +6°C° 0 mm 4 mps 477 mmHg 71%
    04:00 +6°C° 0 mm 4 mps 477 mmHg 72%
    05:00 +5°C° 0 mm 3 mps 476 mmHg 73%
    06:00 +7°C° 0 mm 3 mps 477 mmHg 70%
    07:00 +7°C° 0 mm 3 mps 477 mmHg 67%
    08:00 +7°C° 0 mm 3 mps 478 mmHg 64%
    09:00 +9°C° 0 mm 3 mps 479 mmHg 55%
    10:00 +11°C° 0 mm 3 mps 480 mmHg 46%
    11:00 +13°C° 0 mm 4 mps 481 mmHg 36%
    12:00 +14°C° 0 mm 4 mps 481 mmHg 34%
    13:00 +17°C° 0 mm 4 mps 481 mmHg 31%
    14:00 +18°C° 0 mm 4 mps 481 mmHg 28%
    15:00 +17°C° 0 mm 5 mps 480 mmHg 29%
    16:00 +17°C° 0 mm 5 mps 480 mmHg 31%
    17:00 +16°C° 0 mm 6 mps 479 mmHg 32%
    18:00 +15°C° 0 mm 6 mps 479 mmHg 39%
    19:00 +13°C° 0 mm 6 mps 478 mmHg 46%
    20:00 +10°C° 0 mm 7 mps 477 mmHg 53%
    21:00 +9°C° 0 mm 6 mps 477 mmHg 56%
    22:00 +9°C° 0 mm 5 mps 477 mmHg 58%
    23:00 +8°C° 0 mm 5 mps 477 mmHg 61%

    30 March, Saturday

    Time Temperature Precipitation Wind Pressure Humidity
    00:00 +8°C° 0 mm 4 mps 476 mmHg 63%
    01:00 +7°C° 0 mm 4 mps 476 mmHg 65%
    02:00 +7°C° 0 mm 4 mps 476 mmHg 67%
    03:00 +8°C° 0 mm 3 mps 475 mmHg 69%
    04:00 +7°C° 0 mm 3 mps 475 mmHg 70%
    05:00 +7°C° 0 mm 2 mps 475 mmHg 72%
    06:00 +7°C° 0 mm 2 mps 476 mmHg 70%
    07:00 +8°C° 0 mm 2 mps 476 mmHg 68%
    08:00 +8°C° 0 mm 2 mps 477 mmHg 66%
    09:00 +10°C° 0 mm 2 mps 477 mmHg 59%
    10:00 +12°C° 0 mm 2 mps 478 mmHg 52%
    11:00 +13°C° 0 mm 3 mps 479 mmHg 45%
    12:00 +14°C° 0 mm 3 mps 479 mmHg 42%
    13:00 +16°C° 0 mm 2 mps 479 mmHg 39%
    14:00 +17°C° 0 mm 2 mps 479 mmHg 36%
    15:00 +17°C° 0 mm 2 mps 479 mmHg 37%
    16:00 +17°C° 0 mm 2 mps 478 mmHg 38%
    17:00 +17°C° 0 mm 3 mps 478 mmHg 39%
    18:00 +14°C° 0 mm 3 mps 478 mmHg 46%
    19:00 +13°C° 0 mm 4 mps 477 mmHg 52%
    20:00 +12°C° 0 mm 4 mps 477 mmHg 59%
    21:00 +11°C° 0 mm 4 mps 477 mmHg 60%
    22:00 +11°C° 0 mm 3 mps 477 mmHg 61%
    23:00 +10°C° 0 mm 2 mps 477 mmHg 61%
    Show more